EW4453 Weather Reports


time (UTC)temp
C
wind
direction
speed
KPH
gust
KPH
rain 1hr
cm
rain 24hr
cm
rain mn
cm
humidity
%
barometer
mb
20260507070051 25 59 1.6 8.0 0.00 0.00 0.00 83 1015.7
20260507064553 25 43 1.6 6.4 0.00 0.00 0.00 82 1015.8
20260507063054 25 60 3.2 9.7 0.00 0.00 0.00 83 1015.8
20260507061555 25 40 1.6 8.0 0.00 0.00 0.00 84 1016.0
20260507060052 25 56 3.2 9.7 0.00 0.00 0.00 84 1016.3
20260507054639 25 64 3.2 11.3 0.00 0.00 0.00 84 1016.5
20260507053105 25 74 1.6 8.0 0.00 0.00 0.00 84 1016.6
20260507051501 25 23 1.6 9.7 0.00 0.00 0.00 83 1016.8
20260507050011 25 136 1.6 12.9 0.00 0.00 0.00 83 1017.0
20260507044506 25 38 1.6 9.7 0.00 0.00 0.00 82 1017.2
20260507043017 25 12 1.6 12.9 0.00 0.00 0.00 82 1017.2
20260507041519 25 127 1.6 9.7 0.00 0.00 0.00 82 1017.4
20260507040022 25 40 0.0 16.1 0.00 0.00 0.00 81 1017.5
20260507034533 25 56 3.2 9.7 0.00 0.00 0.00 82 1017.5
20260507033034 25 43 3.2 6.4 0.00 0.00 0.00 80 1017.7
20260507031601 25 84 3.2 12.9 0.00 0.00 0.00 79 1017.9
20260507030053 25 107 3.2 14.5 0.00 0.00 0.00 79 1018.0
20260507024548 25 67 1.6 9.7 0.00 0.00 0.00 79 1017.9
20260507023101 25 359 3.2 16.1 0.00 0.00 0.00 78 1017.9
20260507021549 25 50 3.2 9.7 0.00 0.00 0.00 79 1017.9
20260507020055 25 33 3.2 14.5 0.00 0.00 0.00 79 1017.8
20260507014602 25 109 1.6 6.4 0.00 0.00 0.00 80 1017.7
20260507013055 26 129 0.0 4.8 0.00 0.00 0.00 80 1017.6
20260507011557 26 35 0.0 12.9 0.00 0.00 0.00 80 1017.5
20260507010105 26 158 3.2 16.1 0.00 0.00 0.00 80 1017.3
20260507004558 26 162 6.4 12.9 0.00 0.00 0.00 80 1017.1
20260507003100 26 77 0.0 6.4 0.00 0.00 0.00 80 1017.0
20260507001606 26 16 0.0 9.7 0.00 0.00 0.00 81 1016.9
20260507000101 26 70 6.4 16.1 0.00 0.00 0.00 81 1016.9
20260506234604 26 54 3.2 11.3 0.00 0.00 0.00 81 1016.7
20260506233002 26 164 1.6 12.9 0.00 0.00 0.00 80 1016.4
20260506231503 26 60 1.6 9.7 0.00 0.00 0.00 80 1016.2
20260506230014 26 64 4.8 9.7 0.00 0.00 0.00 79 1016.2
20260506224513 26 59 3.2 16.1 0.00 0.00 0.00 79 1016.1
20260506223024 26 50 3.2 14.5 0.00 0.00 0.00 78 1015.8
20260506221526 26 53 3.2 16.1 0.00 0.00 0.00 76 1015.6
20260506220028 27 71 6.4 17.7 0.00 0.00 0.00 75 1015.5
20260506214539 27 163 4.8 17.7 0.00 0.03 0.00 74 1015.4
20260506213044 27 52 8.0 17.7 0.00 0.03 0.00 73 1015.3
20260506211552 28 162 3.2 20.9 0.00 0.03 0.00 73 1015.1
20260506210057 28 58 4.8 19.3 0.00 0.03 0.00 71 1015.0
20260506204555 28 68 8.0 16.1 0.00 0.03 0.00 72 1015.0
20260506203055 28 359 6.4 16.1 0.00 0.03 0.00 73 1015.0
20260506201557 28 137 3.2 16.1 0.00 0.03 0.00 75 1015.1
20260506200058 28 73 8.0 22.5 0.00 0.03 0.00 76 1015.1
20260506194634 29 68 6.4 16.1 0.00 0.03 0.00 75 1015.3
20260506193106 29 66 6.4 17.7 0.00 0.03 0.00 74 1015.5
20260506191602 29 64 4.8 11.3 0.00 0.03 0.00 76 1015.6
20260506190000 30 75 9.7 19.3 0.00 0.03 0.00 74 1015.7
20260506184501 30 71 4.8 17.7 0.00 0.03 0.00 74 1015.8
20260506183003 30 16 6.4 19.3 0.00 0.03 0.00 74 1016.0
20260506181505 29 78 9.7 20.9 0.00 0.03 0.00 73 1016.2
20260506180006 29 359 6.4 20.9 0.00 0.03 0.00 72 1016.3
20260506174517 29 58 4.8 19.3 0.00 0.03 0.00 72 1016.5
20260506173018 29 47 6.4 17.7 0.00 0.03 0.00 71 1016.8
20260506171521 30 143 6.4 14.5 0.00 0.03 0.00 69 1017.0
20260506170030 31 48 6.4 19.3 0.00 0.03 0.00 67 1017.1
20260506164532 31 59 4.8 14.5 0.00 0.03 0.00 69 1017.2
20260506163104 32 43 4.8 17.7 0.00 0.03 0.00 65 1017.4
20260506161544 32 80 4.8 19.3 0.00 0.03 0.00 66 1017.7
20260506160044 31 83 6.4 14.5 0.00 0.03 0.00 70 1017.6
20260506154604 31 113 3.2 9.7 0.00 0.03 0.00 67 1017.8
20260506153051 31 176 1.6 12.9 0.00 0.03 0.00 65 1017.9
20260506151559 31 135 0.0 9.7 0.00 0.03 0.00 68 1017.9
20260506144559 30 155 3.2 9.7 0.00 0.03 0.00 70 1018.0
20260506143107 30 74 4.8 12.9 0.00 0.03 0.00 68 1018.2
20260506141508 31 137 4.8 14.5 0.00 0.03 0.00 67 1018.3
20260506140103 31 88 3.2 16.1 0.00 0.03 0.00 68 1018.4
20260506134502 30 47 4.8 11.3 0.00 0.03 0.00 69 1018.2
20260506133002 30 87 9.7 16.1 0.00 0.03 0.00 71 1018.3
20260506131504 28 88 6.4 17.7 0.00 0.03 0.00 74 1018.3
20260506130005 28 89 6.4 19.3 0.00 0.03 0.00 74 1018.2
20260506124516 28 77 3.2 17.7 0.00 0.10 0.00 77 1018.0
20260506123017 27 164 3.2 14.5 0.00 0.10 0.00 78 1018.1
20260506121535 27 135 6.4 19.3 0.00 0.10 0.00 79 1018.0
20260506120030 26 133 1.6 16.1 0.00 0.10 0.00 79 1018.0
20260506114541 26 359 3.2 17.7 0.00 0.10 0.00 81 1017.9
20260506113042 26 55 4.8 9.7 0.00 0.10 0.00 83 1017.5
20260506111543 26 62 3.2 12.9 0.00 0.10 0.00 83 1017.5
20260506110051 26 206 3.2 9.7 0.00 0.10 0.00 84 1017.3
20260506104543 25 54 3.2 19.3 0.00 0.10 0.00 85 1017.2
20260506103044 25 70 3.2 16.1 0.00 0.10 0.00 85 1017.3
20260506101546 25 67 3.2 12.9 0.00 0.10 0.00 85 1017.2
20260506100047 25 54 1.6 12.9 0.00 0.10 0.00 86 1017.0
20260506094549 25 111 1.6 8.0 0.00 0.10 0.00 85 1016.8
20260506093043 25 166 3.2 12.9 0.00 0.10 0.00 85 1016.7
20260506091542 25 63 3.2 8.0 0.00 0.10 0.00 85 1016.6
20260506090043 25 65 4.8 9.7 0.00 0.10 0.00 85 1016.5
20260506084547 25 75 3.2 12.9 0.00 0.10 0.00 84 1016.4
20260506083046 25 76 4.8 9.7 0.00 0.10 0.00 85 1016.4
20260506081547 25 83 3.2 12.9 0.00 0.10 0.00 85 1016.4
20260506073052 25 58 6.4 12.9 0.00 0.10 0.00 83 1016.2
20260506071554 25 137 4.8 14.5 0.00 0.10 0.00 83 1016.3